Stations météo

réclame
Mon MeteoGroup
Feuchtwangen-Heilbronn, Allemagne (10756): Température de l'air & dewpoint: 16.08.2019 03:00:00 - 22.08.2019 03:00:00 (CEST)Feuchtwangen-Heilbronn, Allemagne (10756): Température de l'air 5cm & Température de l'air -5cm: 16.08.2019 03:00:00 - 22.08.2019 03:00:00 (CEST)Feuchtwangen-Heilbronn, Allemagne (10756): Température de l'air -20cm & Température de l'air -100cm: 16.08.2019 03:00:00 - 22.08.2019 03:00:00 (CEST)Feuchtwangen-Heilbronn, Allemagne (10756): Vitesse du vent & gusts: 16.08.2019 03:00:00 - 22.08.2019 03:00:00 (CEST)Feuchtwangen-Heilbronn, Allemagne (10756): Direction du vent: 16.08.2019 03:00:00 - 22.08.2019 03:00:00 (CEST)Feuchtwangen-Heilbronn, Allemagne (10756): reduced air pressure: 16.08.2019 03:00:00 - 22.08.2019 03:00:00 (CEST)Feuchtwangen-Heilbronn, Allemagne (10756): visibility: 16.08.2019 03:00:00 - 22.08.2019 03:00:00 (CEST)Feuchtwangen-Heilbronn, Allemagne (10756): Ensoleillement: 16.08.2019 03:00:00 - 22.08.2019 03:00:00 (CEST)Feuchtwangen-Heilbronn, Allemagne (10756): Quantités de précipitations: 16.08.2019 03:00:00 - 22.08.2019 03:00:00 (CEST)
Date & Time tt [°C] td [°C] tt 5cm [°C] tt -5cm [°C] tt -20cm [°C] tt -100cm [°C] ff [km/h] ff [knt] fx [km/h] fx [knt] dd ppp [hPa] vv [km] sd [min] rr [mm]
22.08.2019 03:00:00 9,4 8,7 7,7 13,9 17,7 17,9 6 3 8 5 NE 1027,5 33 0 0,0
22.08.2019 02:00:00 10,1 9,3 7,5 14,5 18,0 17,9 2 1 4 2 WSW 1027,6 39 0 0,0
22.08.2019 01:00:00 10,9 9,1 9,2 15,1 18,3 17,9 4 2 6 3 ESE 1027,8 43 0 0,0
22.08.2019 00:00:00 11,1 10,1 9,6 15,5 18,6 17,9 3 2 5 3 NNE 1028,0 46 0 0,0
21.08.2019 23:00:00 11,2 9,9 9,1 16,2 18,9 17,9 0 0 6 4 N 1028,1 49 0 0,0
21.08.2019 22:00:00 13,5 8,9 9,5 17,1 19,2 17,9 6 3 9 5 ENE 1027,5 63 0 0,0
21.08.2019 21:00:00 13,8 9,5 10,2 18,4 19,4 17,9 7 4 8 5 ENE 1027,4 55 0 0,0
21.08.2019 20:00:00 17,3 9,3 14,3 19,9 19,4 17,9 7 4 17 9 E 1026,7 64 41 0,0
21.08.2019 19:00:00 19,2 9,3 18,8 21,2 19,3 17,9 14 7 21 11 E 1026,1 56 60 0,0
21.08.2019 18:00:00 19,7 7,7 20,7 21,9 19,2 17,9 9 5 19 11 NNE 1026,4 75 59 0,0
21.08.2019 17:00:00 20,1 8,5 21,7 22,5 18,9 17,9 14 7 25 13 ENE 1026,4 48 60 0,0
21.08.2019 16:00:00 19,5 8,5 22,1 22,3 18,6 17,9 10 6 22 12 ENE 1026,9 54 40 0,0
21.08.2019 15:00:00 18,8 9,0 21,5 23,0 18,2 17,9 9 5 21 11 ESE 1027,2 36 43 0,0
21.08.2019 14:00:00 18,8 8,6 23,1 22,7 17,7 17,9 11 6 22 12 ESE 1027,5 45 58 0,0
21.08.2019 13:00:00 18,4 9,8 21,4 21,5 17,3 17,9 13 7 21 12 E 1027,8 44 53 0,0
21.08.2019 12:00:00 17,1 10,4 19,8 20,5 16,9 17,9 11 6 19 10 E 1028,3 37 53 0,0
21.08.2019 11:00:00 16,9 10,9 19,5 19,0 16,6 17,9 13 7 21 11 E 1028,6 65 60 0,0
21.08.2019 10:00:00 15,1 11,8 17,9 17,2 16,4 17,9 6 3 9 5 NE 1028,8 31 57 0,0
21.08.2019 09:00:00 11,7 10,8 14,0 15,3 16,4 17,9 3 2 6 3 NNW 1029,8 4,6 34 0,0
21.08.2019 08:00:00 10,2 10,2 11,2 14,1 16,5 17,9 3 2 5 3 SW 1030,0 0,1 0 0,0
21.08.2019 07:00:00 10,2 10,2 10,5 13,9 16,6 17,9 2 1 6 4 W 1029,7 0,1 0 0,0
21.08.2019 06:00:00 10,5 10,5 10,7 14,0 16,8 17,9 4 2 9 5 SSW 1029,2 0,2 0 0,1
21.08.2019 05:00:00 10,9 10,9 11,0 14,1 16,9 17,9 6 3 9 5 SW 1028,9 0,1 0 0,0
21.08.2019 04:00:00 11,1 11,1 11,2 14,2 17,1 17,9 8 4 12 6 WSW 1028,8 0,4 0 0,0
21.08.2019 03:00:00 11,3 11,2 11,2 14,2 17,3 17,9 4 2 10 5 SSW 1028,4 1,3 0 0,0
21.08.2019 02:00:00 11,1 11,0 10,0 14,4 17,5 17,9 7 4 10 5 SW 1028,2 6 0 0,0
21.08.2019 01:00:00 11,5 11,0 10,9 14,9 17,6 17,9 4 2 12 6 SW 1028,4 24 0 0,0
21.08.2019 00:00:00 12,0 11,5 11,7 15,2 17,8 17,9 5 3 9 5 W 1027,4 19 0 0,0
20.08.2019 23:00:00 12,3 12,0 12,2 15,5 18,0 17,9 4 2 10 6 SW 1027,1 14 0 0,1
20.08.2019 22:00:00 12,7 12,3 12,5 15,8 18,1 17,9 6 3 13 7 WSW 1026,9 11 0 0,2
20.08.2019 21:00:00 13,0 12,5 12,9 16,1 18,3 17,9 10 6 16 9 WNW 1026,3 16 0 1,2
20.08.2019 20:00:00 13,3 12,7 13,1 16,5 18,5 17,9 9 5 21 11 WNW 1025,6 10 0 1,8
20.08.2019 19:00:00 13,7 12,7 13,4 17,0 18,6 17,9 13 7 23 12 NW 1024,6 14 0 1,3
20.08.2019 18:00:00 14,3 12,0 13,4 17,7 18,6 17,9 16 8 31 17 NW 1024,1 17 0 1,0
20.08.2019 17:00:00 15,8 12,6 14,7 18,4 18,6 17,9 14 8 26 14 NW 1023,2 22 0 0,2
20.08.2019 16:00:00 17,0 12,6 17,4 18,7 18,6 17,9 11 6 17 9 NNW 1022,2 51 0 0,0
20.08.2019 15:00:00 17,0 13,3 16,7 18,6 18,5 17,9 10 5 16 9 NNW 1021,7 39 0 0,0
20.08.2019 14:00:00 17,2 12,5 16,4 18,5 18,5 17,9 3 2 11 6 NNW 1021,9 24 0 0,2
20.08.2019 13:00:00 17,4 11,4 17,6 18,2 18,5 17,9 8 4 16 9 NNW 1021,7 49 0 0,0
20.08.2019 12:00:00 17,8 11,2 18,1 18,3 18,4 17,9 8 4 15 8 NNE 1021,1 55 0 0,0
20.08.2019 11:00:00 17,7 11,2 18,0 18,3 18,3 17,9 9 5 15 8 N 1021,3 56 0 0,0
20.08.2019 10:00:00 17,6 11,3 18,5 17,6 18,3 17,9 6 3 10 6 N 1020,7 49 0 0,0
20.08.2019 09:00:00 15,6 13,1 15,6 16,7 18,3 17,9 5 3 7 4 WNW 1021,0 54 0 0,0
20.08.2019 08:00:00 14,0 12,7 13,6 15,9 18,5 17,9 3 2 5 3 N 1021,1 36 0 0,0
20.08.2019 07:00:00 12,6 12,3 11,7 15,7 18,7 17,9 0 0 4 2 N 1021,4 26 0 0,0
20.08.2019 06:00:00 13,0 12,8 11,1 16,2 18,9 17,9 3 2 4 2 SW 1020,7 15 0 0,0
20.08.2019 05:00:00 13,6 13,2 12,3 16,6 19,1 17,9 0 0 3 2 N 1020,7 18 0 0,0
20.08.2019 04:00:00 14,1 13,5 13,5 16,9 19,3 17,9 0 0 4 2 N 1020,7 33 0 0,0
20.08.2019 03:00:00 14,4 13,7 13,3 17,1 19,5 17,9 0 0 7 4 N 1020,8 36 0 0,0
20.08.2019 02:00:00 14,3 13,7 13,7 17,4 19,7 17,9 3 1 4 2 E 1020,8 31 0 0,0
20.08.2019 01:00:00 14,3 13,7 13,9 17,6 20,0 17,9 3 1 8 4 ESE 1020,8 36 0 0,0
20.08.2019 00:00:00 14,5 13,9 13,2 18,0 20,2 17,9 2 1 4 2 SW 1020,4 31 0 0,0
19.08.2019 23:00:00 15,5 14,4 13,4 18,7 20,5 17,9 2 1 5 3 WSW 1019,9 50 0 0,0
19.08.2019 22:00:00 17,1 14,8 16,0 19,5 20,7 17,8 2 1 5 3 E 1019,1 52 0 0,0
19.08.2019 21:00:00 17,9 14,1 15,8 20,2 20,8 17,8 2 1 9 5 S 1018,7 60 0 0,0
19.08.2019 20:00:00 20,7 13,4 19,2 21,2 20,9 17,8 7 4 13 7 WSW 1017,8 56 37 0,0
19.08.2019 19:00:00 22,2 11,9 22,4 22,1 20,8 17,8 8 5 16 9 WSW 1017,2 59 28 0,0
19.08.2019 18:00:00 22,0 13,6 22,4 22,9 20,7 17,8 9 5 16 9 WSW 1017,1 70 21 0,0
19.08.2019 17:00:00 22,0 13,2 23,6 23,3 20,5 17,8 8 4 17 9 WSW 1017,0 64 39 0,0
19.08.2019 16:00:00 21,4 13,6 23,5 23,2 20,3 17,8 9 5 17 9 W 1017,4 69 30 0,0
19.08.2019 15:00:00 21,0 12,8 24,1 22,8 20,1 17,8 9 5 18 10 W 1017,4 74 18 0,0
19.08.2019 14:00:00 21,0 14,3 24,5 22,3 19,9 17,8 10 5 16 9 SW 1016,8 70 4 0,0
19.08.2019 13:00:00 19,5 13,8 21,5 22,0 19,7 17,8 13 7 26 14 WNW 1017,1 75 18 0,0
19.08.2019 12:00:00 19,0 14,6 21,5 21,2 19,5 17,8 11 6 21 12 W 1017,0 58 20 0,0
19.08.2019 11:00:00 18,2 15,7 20,9 19,9 19,5 17,8 10 5 18 10 W 1016,9 67 15 0,0
19.08.2019 10:00:00 17,5 16,6 18,3 18,8 19,5 17,9 6 3 11 6 WSW 1016,6 38 0 0,0
19.08.2019 09:00:00 16,5 16,0 16,6 18,3 19,6 17,9 6 3 12 6 S 1016,6 31 0 0,5
19.08.2019 08:00:00 16,3 16,0 16,4 18,2 19,8 17,9 7 4 10 5 S 1016,2 37 0 0,0
19.08.2019 07:00:00 16,3 16,0 16,2 18,2 19,9 17,9 6 3 21 11 WSW 1015,6 42 0 0,5
19.08.2019 06:00:00 16,4 15,9 16,1 18,5 20,1 17,9 15 8 25 13 SSW 1015,9 12 0 0,8
19.08.2019 05:00:00 17,2 16,3 16,7 18,7 20,3 17,9 14 8 22 12 WSW 1015,3 41 0 0,0
19.08.2019 04:00:00 17,4 16,5 16,8 18,9 20,5 17,9 8 4 20 11 S 1014,7 46 0 0,0
19.08.2019 03:00:00 17,1 16,7 16,6 19,2 20,7 17,9 6 4 13 7 SSE 1014,6 48 0 0,0
19.08.2019 02:00:00 17,3 16,2 16,7 19,5 21,0 17,9 8 5 25 14 W 1013,6 47 0 1,8
19.08.2019 01:00:00 18,2 16,0 16,9 19,9 21,3 17,9 5 3 10 6 S 1013,2 62 0 0,0
19.08.2019 00:00:00 18,7 16,3 17,4 20,2 21,6 17,9 6 3 10 5 N 1012,3 66 0 0,0
18.08.2019 23:00:00 19,4 16,2 17,2 20,9 22,0 17,9 6 4 15 8 ENE 1010,8 59 0 0,0
18.08.2019 22:00:00 20,4 15,8 17,6 21,9 22,3 17,9 8 4 21 11 W 1010,4 55 0 0,0
18.08.2019 21:00:00 22,1 15,2 19,8 23,3 22,5 17,9 12 7 20 11 W 1009,4 59 0 0,0
18.08.2019 20:00:00 21,4 18,1 19,7 25,1 22,6 17,9 6 3 14 8 WSW 1008,6 50 41 0,0
18.08.2019 19:00:00 20,7 18,7 20,5 27,1 22,4 17,9 7 4 64 35 ESE 1008,6 45 14 4,2
18.08.2019 18:00:00 29,6 14,9 31,7 29,5 22,0 17,9 10 5 29 16 W 1006,6 59 53 0,0
18.08.2019 17:00:00 29,6 14,5 32,1 30,3 21,5 17,9 17 9 30 16 W 1006,9 61 60 0,0
18.08.2019 16:00:00 30,4 13,9 33,5 30,3 20,8 17,9 19 10 34 19 W 1007,0 69 60 0,0
18.08.2019 15:00:00 29,3 14,6 33,4 29,7 20,1 17,9 15 8 34 18 WSW 1007,4 69 60 0,0
18.08.2019 14:00:00 28,5 14,3 32,7 28,4 19,4 17,9 19 10 34 19 SW 1008,1 54 60 0,0
18.08.2019 13:00:00 27,1 15,5 32,4 26,5 18,8 17,9 16 8 35 19 WSW 1008,5 61 60 0,0
18.08.2019 12:00:00 25,8 15,0 31,0 24,3 18,2 17,9 13 7 23 13 WSW 1008,8 64 60 0,0
18.08.2019 11:00:00 23,8 14,8 27,9 21,8 17,9 17,9 11 6 24 13 SSW 1009,4 50 60 0,0
18.08.2019 10:00:00 22,0 14,5 24,9 19,6 17,7 17,9 13 7 18 10 SSW 1009,9 61 60 0,0
18.08.2019 09:00:00 19,9 14,6 21,7 17,7 17,7 18,0 10 6 16 8 SSW 1010,1 49 60 0,0
18.08.2019 08:00:00 16,7 13,8 17,6 16,3 17,8 18,0 10 6 14 8 S 1010,8 65 49 0,0
18.08.2019 07:00:00 15,0 13,4 14,2 16,0 17,9 18,0 8 5 16 9 S 1011,0 48 0 0,0
18.08.2019 06:00:00 15,1 13,5 14,1 16,3 18,0 18,0 9 5 15 8 S 1010,9 45 0 0,0
18.08.2019 05:00:00 15,1 13,6 14,5 16,4 18,1 18,0 4 2 13 7 S 1011,3 57 0 0,0
18.08.2019 04:00:00 15,0 13,7 14,4 16,6 18,3 18,0 6 4 11 6 SSE 1011,7 45 0 0,0
18.08.2019 03:00:00 15,4 14,1 14,8 16,9 18,4 18,0 5 3 11 6 S 1012,2 51 0 0,0
18.08.2019 02:00:00 15,7 13,9 15,0 17,1 18,5 18,0 5 3 10 5 SSE 1012,3 52 0 0,0
18.08.2019 01:00:00 16,0 13,9 15,4 17,3 18,7 18,0 5 3 10 5 SSW 1012,7 54 0 0,0
18.08.2019 00:00:00 16,0 13,6 15,3 17,5 18,8 18,0 6 3 21 11 SSW 1013,0 73 0 0,0
17.08.2019 23:00:00 15,8 14,4 15,1 17,9 19,0 18,0 10 6 20 11 SW 1013,7 54 0 0,0
17.08.2019 22:00:00 16,1 14,5 15,2 18,4 19,1 18,0 14 7 23 12 WSW 1014,0 48 0 0,3
17.08.2019 21:00:00 17,0 14,5 15,7 19,1 19,2 18,0 7 4 20 11 WSW 1013,7 20 0 0,2
17.08.2019 20:00:00 18,9 14,6 16,9 20,1 19,2 18,0 11 6 19 10 W 1013,0 47 0 0,1
17.08.2019 19:00:00 21,0 13,0 20,7 20,8 19,1 18,0 7 4 14 8 WSW 1012,5 51 0 0,0
17.08.2019 18:00:00 20,8 12,9 20,5 21,1 18,9 18,0 11 6 23 12 W 1012,7 44 0 0,0
17.08.2019 17:00:00 22,3 12,4 23,7 21,6 18,7 18,0 11 6 19 10 SW 1012,0 51 0 0,0
17.08.2019 16:00:00 21,6 12,0 23,2 21,1 18,5 18,0 9 5 19 11 SW 1012,4 55 0 0,0
17.08.2019 15:00:00 21,2 10,2 21,7 21,2 18,2 18,1 13 7 26 14 SW 1012,9 69 0 0,0
17.08.2019 14:00:00 21,3 10,6 22,2 21,2 17,9 18,1 18 10 25 13 SSW 1012,9 75 3 0,0
17.08.2019 13:00:00 21,4 13,2 24,4 19,9 17,6 18,1 10 5 19 10 SSW 1013,6 62 0 0,0
17.08.2019 12:00:00 19,9 14,0 20,2 19,1 17,4 18,1 8 4 17 9 SSW 1014,0 32 0 0,0
17.08.2019 11:00:00 19,3 12,6 21,2 18,0 17,3 18,1 11 6 16 9 SW 1013,8 51 1 0,0
17.08.2019 10:00:00 16,7 12,7 18,0 16,6 17,2 18,1 8 4 15 8 S 1014,4 59 1 0,0
17.08.2019 09:00:00 15,5 12,6 16,5 15,8 17,3 18,1 7 4 13 7 S 1014,3 42 0 0,0
17.08.2019 08:00:00 13,8 11,6 13,5 15,2 17,4 18,1 4 2 9 5 SSW 1014,6 45 0 0,0
17.08.2019 07:00:00 13,5 10,9 13,0 14,8 17,5 18,1 3 2 6 3 SE 1014,5 49 0 0,0
17.08.2019 06:00:00 12,6 10,4 10,4 15,0 17,7 18,1 5 3 9 5 SSW 1014,9 45 0 0,0
17.08.2019 05:00:00 11,9 10,6 11,1 15,1 17,9 18,1 3 2 9 5 WSW 1015,1 42 0 0,0
17.08.2019 04:00:00 11,7 10,7 11,1 15,1 18,1 18,1 2 1 8 4 WNW 1015,3 42 0 0,0
17.08.2019 03:00:00 11,7 10,2 10,4 15,0 18,4 18,1 5 3 9 5 SE 1015,6 44 0 0,0
17.08.2019 02:00:00 10,3 9,6 7,8 15,5 18,7 18,2 0 0 3 2 N 1016,4 40 0 0,0
17.08.2019 01:00:00 10,9 9,9 8,4 16,2 19,1 18,2 0 0 4 2 N 1016,4 46 0 0,0
17.08.2019 00:00:00 11,1 10,3 8,8 16,9 19,4 18,2 2 1 4 2 E 1017,0 41 0 0,0
16.08.2019 23:00:00 12,3 11,0 9,2 17,9 19,6 18,2 3 1 5 3 NNE 1017,0 45 0 0,0
16.08.2019 22:00:00 13,8 11,4 11,2 19,1 19,8 18,2 4 2 10 5 NNE 1016,8 57 0 0,0
16.08.2019 21:00:00 15,9 10,7 12,1 20,6 19,9 18,2 6 3 8 4 ENE 1016,2 54 2 0,0
16.08.2019 20:00:00 20,4 9,8 19,1 22,1 19,8 18,2 3 2 14 7 NNE 1015,2 65 60 0,0
16.08.2019 19:00:00 20,6 9,8 20,8 23,0 19,6 18,2 7 4 18 10 NW 1015,3 55 50 0,0
16.08.2019 18:00:00 20,9 10,4 22,5 23,7 19,3 18,2 11 6 21 11 WNW 1016,0 60 43 0,0
16.08.2019 17:00:00 21,5 10,2 24,4 24,3 18,9 18,2 11 6 28 15 W 1016,2 53 50 0,0
16.08.2019 16:00:00 21,1 9,9 26,2 23,8 18,5 18,2 13 7 29 16 W 1016,6 57 35 0,0
16.08.2019 15:00:00 20,9 9,9 25,3 22,8 18,1 18,2 10 5 23 12 WSW 1017,1 67 37 0,0
16.08.2019 14:00:00 19,9 10,8 24,1 21,7 17,7 18,2 12 6 26 14 W 1017,9 61 30 0,0
16.08.2019 13:00:00 17,5 9,9 18,9 20,3 17,4 18,3 12 6 27 14 WNW 1018,7 48 18 0,0
16.08.2019 12:00:00 17,0 9,6 19,9 19,6 17,1 18,3 13 7 29 15 W 1019,2 51 26 0,0
16.08.2019 11:00:00 16,9 10,2 19,8 18,2 16,9 18,3 19 10 29 15 WNW 1019,5 47 27 0,0
16.08.2019 10:00:00 16,2 11,3 18,9 16,9 16,8 18,3 16 9 25 13 W 1019,7 61 31 0,0
16.08.2019 09:00:00 14,8 12,0 17,2 15,5 16,8 18,3 8 4 13 7 WNW 1020,0 51 21 0,0
16.08.2019 08:00:00 12,5 11,2 11,5 14,3 17,0 18,3 4 2 14 8 SSW 1020,1 35 16 0,0
16.08.2019 07:00:00 12,0 11,3 11,2 14,1 17,2 18,3 11 6 17 9 SW 1019,7 33 0 0,0
16.08.2019 06:00:00 12,3 11,5 10,2 14,6 17,3 18,3 7 4 13 7 SSW 1019,5 39 0 0,0
16.08.2019 05:00:00 13,1 11,8 11,3 15,2 17,5 18,3 6 3 16 9 W 1019,2 39 0 0,0
16.08.2019 04:00:00 13,8 12,5 13,2 15,5 17,6 18,3 9 5 22 12 W 1018,9 43 0 0,0
16.08.2019 03:00:00 14,4 12,7 13,8 15,5 17,8 18,3 11 6 20 11 SW 1018,3 52 0 0,0

tt = Température de l'air
td = dewpoint
tt 5cm = Température de l'air 5cm
tt -5cm = Température de l'air -5cm
tt -20cm = Température de l'air -20cm
tt -100cm = Température de l'air -100cm
ff = Vitesse du vent
fx = gusts
dd = Direction du vent
ppp = reduced air pressure
vv = visibility
sd = Ensoleillement
rr = Quantités de précipitations

stations d'obs. à proximité